BREEZE-M DEB (TANK)

基本信息
目录编号:
28116
目录名称:
BREEZE-M DEB (TANK)
国际标识:
2003-056E
轨道中心:
EARTH
物体状态:
在轨
发射日期:
2003-12-10 UTC
轨道信息
数据来源: 国际轨道数据
星历时间: 2026-07-14T04:40:39+0800
半长轴: 15473.385km
偏心率: 0.5610965
轨道倾角: 52.961°
近地点辐角: 46.110°
升交点赤经: 75.899°
平近点角: 348.430°
近地点: 413.185km
远地点: 17777.311km
周期: 319.255分钟
每日圈数: 4.510501
详细信息
发射场:
TTMTR
轨道高度:
LEO
数据来源:
AOE Integration Group
参考系:
TEME
时间系统:
UTC
历元类型:
SGP4
2D轨道图
3D轨道图
轨道高度分析图
轨道倾角分析图
轨道综合分析图
查看轨道综合分析图